NOAA NWS Hourly Roundups by Site

Regional Weather Roundup for Bismarck, ND

To Select Another Site Choose from List

Select Site:  

000
ASUS43 KBIS 161910
RWRBIS

NWR BROADCAST TEXT
NATIONAL WEATHER SERVICE BISMARCK ND
200 PM CDT THU AUG 16 2018

NOTE: "FAIR" INDICATES FEW OR NO CLOUDS BELOW 12,000 FEET WITH NO
SIGNIFICANT WEATHER AND/OR OBSTRUCTIONS TO VISIBILITY.


CITY           SKY/WX    TMP DP  RH WIND       PRES   REMARKS
WILLISTON      SUNNY     83  59  44 S5        30.05S
MINOT          SUNNY     83  53  35 NE6       30.03S
MINOT AFB      NOT AVBL
BISMARCK       SUNNY     88  55  32 NE5       30.02F
DICKINSON      MOSUNNY   87  48  25 SW8       30.03F
GARRISON         N/A     86  46  24 SE8       30.02F
HETTINGER ARPT PTSUNNY   86  49  27 VRB3      30.07F
JAMESTOWN      SUNNY     83  54  36 N3        30.01S
CARRINGTON     FAIR      86  50  28 E7G17     30.03F
HAZEN          FAIR      88  50  27 E7        30.03S
LINTON           N/A     86  55  35 N7        30.04F
MANDAN         FAIR      86  55  35 NE10      30.03F
OAKES          FAIR      81  64  57 N9        30.02S
RUGBY          FAIR      79  59  50 NE8       30.03R
STANLEY          N/A     75  57  53 CALM      30.07S
TIOGA          FAIR      79  57  47 E7        30.08S
WATFORD CITY   FAIR      86  55  35 E3        30.04S
$$

CITY           SKY/WX    TMP DP  RH WIND       PRES   REMARKS
GRAND FORKS    FAIR      86  50  28 NE6       29.97F
GRAND FORKS AF FAIR      88  50  26 E6        29.98F
DEVILS LAKE    FAIR      84  54  35 N10       30.02S
FARGO          FAIR      83  53  35 MISG      30.00S
CANDO          FAIR      75  57  53 N6        30.05F
CAVALIER       FAIR      72  57  60 NW7       30.00S HAZE
GRAFTON        FAIR      86  52  30 VRB6      29.99S
GWINNER        PTCLDY    81  66  61 CALM      30.01S
LANGDON        FAIR      73  57  56 NE7       30.04S
ROLLA          FAIR      73  57  56 NE8       30.07R
WALHALLA       FAIR      70  61  73 N5        30.02S
$$

CITY           SKY/WX    TMP DP  RH WIND       PRES   REMARKS
ABERDEEN       MOSUNNY   80  67  64 VRB3      30.02S
MOBRIDGE       MOSUNNY   84  64  50 VRB3      30.00F
BUFFALO          N/A     88  44  21 VRB6      30.04F
RAPID CITY     SUNNY     81  55  40 E8        30.11F
GLASGOW        SUNNY     92  44  19 S9G18     30.02F
SIDNEY         SUNNY     82  57  42 SE5       30.05
WOLF POINT     SUNNY     90  49  24 VRB6      30.03F
GLENDIVE       SUNNY     84  52  33 E8        30.07F
MILES CITY     SUNNY     87  49  26 E6        30.06F
BAKER          SUNNY     84  47  27 CALM      30.09S
$$

CITY           SKY/WX    TMP DP  RH WIND       PRES   REMARKS
BILLINGS       SUNNY     85  39  19 S6        30.11F
GREAT FALLS    SUNNY     85  39  19 CALM      30.09F HAZE
REGINA         PTSUNNY   79  52  38 E12       30.06S SMOKE
ESTEVAN          N/A     73  55  53 E7        30.06F
$$



 

View Past Reports for Bismarck, ND.

Products Courtesy of NOAA-NWS
NWS Information Parsing Script by Ken True at Saratoga Weather - Script by SE Lincoln Weather.